TimeAKDT,TemperatureF,Dew PointF,Humidity,Sea Level PressureIn,VisibilityMPH,Wind Direction,Wind SpeedMPH,Gust SpeedMPH,PrecipitationIn,Events,Conditions,WindDirDegrees,DateUTC
12:53 AM,43.0,39.9,89,29.70,10.0,SSE,3.5,-,0.03,Rain,Light Rain,160,2013-10-06 08:53:00
1:53 AM,43.0,39.9,89,29.71,10.0,Calm,Calm,-,0.01,Rain,Light Rain,0,2013-10-06 09:53:00
2:08 AM,42.8,39.2,87,29.71,10.0,Calm,Calm,-,0.00,Rain,Light Rain,0,2013-10-06 10:08:00
2:53 AM,42.1,39.9,92,29.72,10.0,Calm,Calm,-,0.01,Rain,Light Rain,0,2013-10-06 10:53:00
3:53 AM,41.0,39.9,96,29.73,10.0,WNW,3.5,-,0.00,,Overcast,290,2013-10-06 11:53:00
4:53 AM,42.1,39.9,92,29.74,10.0,WSW,3.5,-,0.01,Rain,Light Rain,250,2013-10-06 12:53:00
5:53 AM,42.1,39.9,92,29.75,10.0,WSW,3.5,-,0.00,,Overcast,240,2013-10-06 13:53:00
6:53 AM,42.1,39.9,92,29.77,10.0,Calm,Calm,-,N/A,,Mostly Cloudy,0,2013-10-06 14:53:00
7:46 AM,42.8,39.2,87,29.77,10.0,Calm,Calm,-,N/A,,Mostly Cloudy,0,2013-10-06 15:46:00
7:53 AM,42.1,39.9,92,29.77,10.0,Calm,Calm,-,N/A,,Mostly Cloudy,0,2013-10-06 15:53:00
8:53 AM,46.9,37.0,68,29.77,10.0,Calm,Calm,-,N/A,,Mostly Cloudy,0,2013-10-06 16:53:00
9:53 AM,43.0,39.9,89,29.78,10.0,East,3.5,-,N/A,,Scattered Clouds,80,2013-10-06 17:53:00
10:53 AM,48.0,39.9,74,29.80,10.0,SE,6.9,-,N/A,,Scattered Clouds,130,2013-10-06 18:53:00
11:53 AM,48.9,39.0,69,29.80,10.0,Calm,Calm,-,N/A,,Scattered Clouds,0,2013-10-06 19:53:00
12:53 PM,48.9,42.1,77,29.80,10.0,Calm,Calm,-,N/A,,Mostly Cloudy,0,2013-10-06 20:53:00
1:53 PM,51.1,39.0,63,29.81,10.0,East,4.6,-,N/A,,Mostly Cloudy,90,2013-10-06 21:53:00
2:53 PM,52.0,34.0,50,29.81,10.0,NW,8.1,-,N/A,,Mostly Cloudy,310,2013-10-06 22:53:00
3:53 PM,54.0,33.1,45,29.81,10.0,WNW,4.6,-,N/A,,Mostly Cloudy,290,2013-10-06 23:53:00
4:53 PM,53.1,32.0,45,29.80,10.0,WNW,6.9,-,N/A,,Mostly Cloudy,290,2013-10-07 00:53:00
5:53 PM,51.1,34.0,52,29.79,10.0,SW,6.9,-,N/A,,Mostly Cloudy,220,2013-10-07 01:53:00
6:53 PM,50.0,34.0,54,29.79,10.0,WSW,4.6,-,N/A,,Mostly Cloudy,250,2013-10-07 02:53:00
7:53 PM,48.0,39.0,71,29.80,10.0,North,3.5,-,N/A,,Overcast,360,2013-10-07 03:53:00
8:53 PM,43.0,37.9,82,29.81,10.0,West,5.8,-,N/A,,Mostly Cloudy,280,2013-10-07 04:53:00
9:53 PM,44.1,37.0,76,29.81,10.0,Calm,Calm,-,N/A,,Overcast,0,2013-10-07 05:53:00
10:53 PM,42.1,36.0,79,29.82,10.0,Calm,Calm,-,N/A,,Mostly Cloudy,0,2013-10-07 06:53:00
11:53 PM,39.9,35.1,83,29.82,10.0,West,6.9,-,N/A,,Scattered Clouds,270,2013-10-07 07:53:00